Weather History for KBKX - March, 2012

Change the Weather History Date:

Wednesday, March 14, 2012

  Actual Average Record
Temperature  
Mean Temperature 48 °F -  
Max Temperature 60 °F 32 °F - (-1)
Min Temperature 35 °F 17 °F - (-1)
Degree Days  
Heating Degree Days 18    
Moisture  
Dew Point 35 °F    
Average Humidity 59    
Maximum Humidity 100    
Minimum Humidity 27    
Precipitation  
Precipitation 0.00 in - - ()
Sea Level Pressure  
Sea Level Pressure 29.84 in    
Wind  
Wind Speed 12 mph (NE)    
Max Wind Speed 22 mph    
Max Gust Speed 26 mph    
Visibility 10 miles    
Events      
Averages and records for this station are not official NWS values.
T = Trace of Precipitation, MM = Missing Value Source: NWS Daily Summary

Daily Weather History Graph

Daily Weather History Graph

Search for Another Location

Airport or City:

Trip Planner

Search our weather history database for the weather conditions in past years. The results will help you decide how hot, cold, wet, or windy it might be!

Date:

Astronomy

Mar. 14, 2012 Rise Set
Actual Time 7:40 AM CDT 7:32 PM CDT
Civil Twilight 7:11 AM CDT 8:01 PM CDT
Nautical Twilight 6:37 AM CDT 8:35 PM CDT
Astronomical Twilight 6:03 AM CDT 9:09 PM CDT
Moon 2:24 AM CDT (3/14) 11:37 AM CDT (3/14)
Length of Visible Light 12h 50m
Length of Day
11h 52m
Waning Gibbous, 54% of the Moon is Illuminated
Mar 14
Waning Gibbous
Mar 14
Last Quarter
Mar 22
New
Mar 30
First Quarter
Apr 6
Full

Hourly Weather History & Observations

Time (CDT) Temp. Windchill Dew Point Humidity Pressure Visibility Wind Dir Wind Speed Gust Speed Precip Events Conditions
12:15 AM 55.4 °F - 44.6 °F 67% 29.73 in 10.0 mi SSE 15.0 mph 19.6 mph N/A   Clear
12:35 AM 55.4 °F - 44.6 °F 67% 29.73 in 10.0 mi SSE 15.0 mph - N/A   Clear
12:55 AM 53.6 °F - 44.6 °F 72% 29.72 in 10.0 mi SSE 16.1 mph 24.2 mph N/A   Clear
1:15 AM 53.6 °F - 44.6 °F 72% 29.72 in 10.0 mi SSE 13.8 mph - N/A   Clear
1:35 AM 53.6 °F - 44.6 °F 72% 29.71 in 10.0 mi SSE 17.3 mph - N/A   Clear
1:55 AM 51.8 °F - 44.6 °F 76% 29.70 in 10.0 mi SSE 13.8 mph - N/A   Clear
2:15 AM 51.8 °F - 44.6 °F 76% 29.70 in 10.0 mi SSE 12.7 mph - N/A   Clear
2:35 AM 51.8 °F - 44.6 °F 76% 29.70 in 10.0 mi SSE 13.8 mph - N/A   Clear
2:55 AM 51.8 °F - 44.6 °F 76% 29.70 in 10.0 mi SSE 13.8 mph - N/A   Clear
3:15 AM 50.0 °F - 42.8 °F 76% 29.70 in 10.0 mi SSE 11.5 mph - N/A   Clear
3:35 AM 48.2 °F - 42.8 °F 82% 29.70 in 10.0 mi SSE 9.2 mph - N/A   Clear
3:55 AM 48.2 °F - 42.8 °F 82% 29.70 in 10.0 mi SSE 10.4 mph - N/A   Clear
4:15 AM 46.4 °F 41.9 °F 42.8 °F 87% 29.69 in 10.0 mi SSE 9.2 mph - N/A   Clear
4:35 AM 46.4 °F 41.5 °F 42.8 °F 87% 29.69 in 10.0 mi SSE 10.4 mph - N/A   Clear
4:55 AM 46.4 °F 41.9 °F 42.8 °F 87% 29.70 in 10.0 mi SSE 9.2 mph - N/A   Clear
5:15 AM 46.4 °F 42.9 °F 41.0 °F 81% 29.70 in 10.0 mi SSE 6.9 mph - N/A   Clear
5:35 AM 42.8 °F 40.1 °F 39.2 °F 87% 29.70 in 10.0 mi SSE 4.6 mph - N/A   Clear
5:55 AM 42.8 °F 39.3 °F 39.2 °F 87% 29.71 in 10.0 mi SE 5.8 mph - N/A   Clear
6:15 AM 42.8 °F 39.3 °F 39.2 °F 87% 29.71 in 10.0 mi SE 5.8 mph - N/A   Clear
6:35 AM 44.6 °F 41.4 °F 41.0 °F 87% 29.72 in 10.0 mi ESE 5.8 mph - N/A   Clear
6:55 AM 42.8 °F - 39.2 °F 87% 29.76 in 9.0 mi Calm Calm - N/A   Clear
7:15 AM 41.0 °F - 37.4 °F 87% 29.76 in 10.0 mi Calm Calm - N/A   Clear
7:35 AM 37.4 °F - 35.6 °F 93% 29.78 in 5.0 mi Calm Calm - N/A   Clear
7:55 AM 37.4 °F 33.8 °F 37.4 °F 100% 29.80 in 0.5 mi NNW 4.6 mph - N/A   Unknown
8:15 AM 35.6 °F 32.8 °F 35.6 °F 100% 29.81 in 0.2 mi NW 3.5 mph - N/A   Unknown
8:35 AM 37.4 °F 32.1 °F 37.4 °F 100% 29.83 in - NNW 6.9 mph - N/A   Unknown
8:55 AM 41.0 °F 38.0 °F 37.4 °F 87% 29.84 in 10.0 mi North 4.6 mph - N/A   Clear
9:15 AM 44.6 °F 40.7 °F 39.2 °F 81% 29.85 in 10.0 mi North 6.9 mph - N/A   Clear
9:35 AM 48.2 °F - 37.4 °F 66% 29.86 in 10.0 mi North 12.7 mph - N/A   Clear
9:55 AM 51.8 °F - 33.8 °F 50% 29.87 in 10.0 mi North 13.8 mph - N/A   Clear
10:15 AM 51.8 °F - 32.0 °F 47% 29.88 in 10.0 mi North 17.3 mph 20.7 mph N/A   Clear
10:35 AM 53.6 °F - 30.2 °F 41% 29.88 in 10.0 mi North 16.1 mph 23.0 mph N/A   Clear
10:55 AM 53.6 °F - 30.2 °F 41% 29.88 in 10.0 mi North 19.6 mph 25.3 mph N/A   Clear
11:15 AM 55.4 °F - 30.2 °F 38% 29.88 in 10.0 mi North 18.4 mph 21.9 mph N/A   Clear
11:35 AM 55.4 °F - 28.4 °F 36% 29.89 in 10.0 mi North 19.6 mph 24.2 mph N/A   Clear
11:55 AM 57.2 °F - 28.4 °F 33% 29.90 in 10.0 mi North 18.4 mph 24.2 mph N/A   Clear
12:15 PM 57.2 °F - 28.4 °F 33% 29.90 in 10.0 mi North 17.3 mph 25.3 mph N/A   Clear
12:35 PM 59.0 °F - 28.4 °F 31% 29.90 in 10.0 mi NNE 21.9 mph 26.5 mph N/A   Clear
12:55 PM 59.0 °F - 28.4 °F 31% 29.90 in 10.0 mi NNE 16.1 mph - N/A   Clear
1:15 PM 60.8 °F - 30.2 °F 31% 29.92 in 10.0 mi NNE 19.6 mph - N/A   Clear
1:35 PM 60.8 °F - 28.4 °F 29% 29.92 in 10.0 mi North 16.1 mph 24.2 mph N/A   Clear
1:55 PM 60.8 °F - 28.4 °F 29% 29.92 in 10.0 mi North 17.3 mph - N/A   Clear
2:15 PM 60.8 °F - 28.4 °F 29% 29.92 in 10.0 mi North 18.4 mph 23.0 mph N/A   Clear
2:35 PM 60.8 °F - 28.4 °F 29% 29.92 in 10.0 mi North 16.1 mph 21.9 mph N/A   Clear
2:55 PM 60.8 °F - 28.4 °F 29% 29.92 in 10.0 mi North 19.6 mph - N/A   Clear
3:15 PM 60.8 °F - 26.6 °F 27% 29.92 in 10.0 mi North 15.0 mph - N/A   Clear
3:35 PM 59.0 °F - 28.4 °F 31% 29.92 in 10.0 mi North 17.3 mph 21.9 mph N/A   Clear
3:55 PM 59.0 °F - 28.4 °F 31% 29.92 in 10.0 mi North 19.6 mph 23.0 mph N/A   Clear
4:15 PM 59.0 °F - 28.4 °F 31% 29.93 in 10.0 mi North 16.1 mph - N/A   Clear
4:35 PM 59.0 °F - 28.4 °F 31% 29.93 in 10.0 mi North 18.4 mph 23.0 mph N/A   Clear
4:55 PM 57.2 °F - 28.4 °F 33% 29.93 in 10.0 mi North 16.1 mph - N/A   Clear
5:15 PM 57.2 °F - 30.2 °F 36% 29.94 in 10.0 mi North 15.0 mph - N/A   Clear
5:35 PM 57.2 °F - 30.2 °F 36% 29.94 in 10.0 mi NNE 15.0 mph 20.7 mph N/A   Clear
5:55 PM 55.4 °F - 28.4 °F 36% 29.95 in 10.0 mi NNE 15.0 mph - N/A   Clear
6:15 PM 55.4 °F - 28.4 °F 36% 29.96 in 10.0 mi North 15.0 mph - N/A   Clear
6:35 PM 55.4 °F - 30.2 °F 38% 29.97 in 10.0 mi North 11.5 mph - N/A   Clear
6:55 PM 53.6 °F - 30.2 °F 41% 29.97 in 10.0 mi NNE 10.4 mph - N/A   Clear
7:35 PM 50.0 °F - 32.0 °F 50% 29.97 in 10.0 mi NNE 6.9 mph - N/A   Clear
7:55 PM 48.2 °F - 33.8 °F 58% 29.97 in 10.0 mi NE 6.9 mph - N/A   Clear
8:15 PM 48.2 °F - 32.0 °F 54% 29.97 in 10.0 mi ENE 3.5 mph - N/A   Clear
8:35 PM 46.4 °F - 32.0 °F 57% 29.97 in 10.0 mi Calm Calm - N/A   Clear
8:55 PM 46.4 °F - 32.0 °F 57% 29.98 in 10.0 mi Calm Calm - N/A   Clear
9:15 PM 42.8 °F - 30.2 °F 61% 29.99 in 10.0 mi Calm Calm - N/A   Clear
9:35 PM 39.2 °F - 30.2 °F 70% 29.99 in 10.0 mi Calm Calm - N/A   Clear
9:55 PM 41.0 °F - 33.8 °F 76% 30.00 in 10.0 mi Calm Calm - N/A   Clear
10:15 PM 39.2 °F - 32.0 °F 75% 30.01 in 10.0 mi Calm Calm - N/A   Clear
10:35 PM 39.2 °F - 32.0 °F 75% 30.01 in 10.0 mi Calm Calm - N/A   Clear
10:55 PM 37.4 °F 34.9 °F 30.2 °F 75% 30.01 in 10.0 mi North 3.5 mph - N/A   Clear
11:15 PM 35.6 °F 31.7 °F 32.0 °F 87% 30.01 in 10.0 mi NNE 4.6 mph - N/A   Clear
11:35 PM 37.4 °F - 32.0 °F 81% 30.01 in - Calm Calm - N/A   Clear
11:55 PM 37.4 °F - 30.2 °F 75% 30.01 in - Calm Calm - N/A   Clear